Regional Weather Roundup
Issued by NWS

Home | Current Version | Previous Version | Text Only | Print | Product List | Glossary Off
Versions: 1 2 3 4 5 6 7 8 9 10 11 12 13 14 15 16 17 18 19 20 21 22 23 24 25 26 27 28 29 30 31 32 33 34 35 36 37 38 39 40 41 42 43 44 45 46 47 48 49 50

000
ASUS43 KLOT 281008
RWRIL

ILLINOIS REGIONAL WEATHER ROUNDUP
NATIONAL WEATHER SERVICE CHICAGO/ROMEOVILLE IL
500 AM CDT TUE MAR 28 2017

NOTE: "FAIR" INDICATES FEW OR NO CLOUDS BELOW 12,000 FEET WITH NO
SIGNIFICANT WEATHER AND/OR OBSTRUCTIONS TO VISIBILITY.

* THESE STATIONS ARE NOT UNDER NWS QUALITY CONTROL. THEY ALSO MAY NOT
  REPORT WEATHER SUCH AS PRECIPITATION OR FOG.

ILZ001-002-007-009-015-016-024-281100-
NORTHWEST ILLINOIS

CITY           SKY/WX    TMP DP  RH WIND       PRES   REMARKS
MOLINE         CLOUDY    49  44  83 CALM      30.02R
STERLING*      CLOUDY    46  44  93 E7        30.03R FOG
SAVANNA*       CLOUDY    46  45  96 N5        30.03S FOG
$$

ILZ003-004-008-010-011-017-018-281100-
NORTH CENTRAL ILLINOIS

CITY           SKY/WX    TMP DP  RH WIND       PRES   REMARKS
ROCKFORD       DRIZZLE   44  40  85 NE14      30.05R
FREEPORT*      CLOUDY    43  42  99 NE6       30.05R FOG
ROCHELLE*      CLOUDY    42  40  95 NE6       30.03R FOG
DE KALB*       CLOUDY    41  39  93 NE9       30.02R FOG
PERU*          CLOUDY    43  39  88 CALM      30.03R
$$

ILZ005-006-012>014-019>023-281100-
NORTHEAST ILLINOIS

CITY           SKY/WX    TMP DP  RH WIND       PRES   REMARKS
CHICAGO-OHARE  CLOUDY    41  35  79 N12G32    30.01R
CHICAGO-MIDWAY CLOUDY    41  36  82 N17G24    30.01R
AURORA         CLOUDY    43  38  82 N9        30.02R
LANSING*       CLOUDY    38  37  95 N13       30.00R WCI  30
JOLIET*        CLOUDY    43  37  79 N10       30.01R
WAUKEGAN       CLOUDY    39  36  89 N6        30.02R WCI  35
DUPAGE AIRPORT CLOUDY    41  38  89 N13       30.01R
KANKAKEE*      CLEAR     39  36  89 N5        30.01R
WHEELING       CLOUDY    40  37  89 N10       30.03R
MORRIS*        CLOUDY    42  38  86 CALM      30.00R
ROMEOVILLE*    CLOUDY    41  38  89 NE13      30.01R
NORTHERLY ISL    N/A     38  36  92 NW14        N/A  WCI  30
$$

LMZ740>746-281100-
SOUTHERN LAKE MICHIGAN

STATION/POSITION SKY/WX   TEMP    WIND        PRES    VSBY  WAVE
                          AIR SEA DIR/SP/G                  HT/PER
                          (F)     (DEG/KT/KT) (MB)    (MI)  (FT/S)
HARRISON CRIB              38     350/ 16/ 19   N/A
BURNHAM HARBOR             38     330/ 13/ 18   N/A
CALUMET HARBOR             38     340/ 11/ 15 1015.7R
BURNS HARBOR               38     360/ 11/ 15 1016.3S
MICHIGAN CITY              38     360/ 15/ 16   N/A
$$

ILZ025>027-034>036-040-047-049-050-058-095>099-281100-
WEST-CENTRAL ILLINOIS

CITY           SKY/WX    TMP DP  RH WIND       PRES   REMARKS
QUINCY         CLOUDY    49  47  93 N7        30.00R FOG
GALESBURG*     CLOUDY    47  46  96 N5        30.01R
MACOMB*        CLOUDY    48  47  97 N6        30.03R
JACKSONVILLE*  CLOUDY    48  48  98 N5        29.99R FOG
PITTSFIELD*    CLOUDY    50  49  94 NW3       30.01R
$$

ILZ028>032-037-038-041>044-048-051>054-059>061-281100-
CENTRAL ILLINOIS

CITY           SKY/WX    TMP DP  RH WIND       PRES   REMARKS
PONTIAC        CLEAR     40  40  99 N5        30.01R
BLOOMINGTON    CLOUDY    44  42  93 N10       30.01R
DECATUR        CLOUDY    46  42  86 NE12      29.99R
PEORIA         CLOUDY    48  47  96 NE5       30.01R FOG
LACON*         CLOUDY    45  43  92 NE6       30.01R
LINCOLN*       CLOUDY    47  47  97 NE3       30.00R FOG
SPRINGFIELD    CLOUDY    51  49  92 NE7       29.99R FOG
TAYLORVILLE    CLOUDY    48  48 100 N12       29.98S FOG
$$

ILZ033-039-045-046-055>057-062-063-281100-
EAST-CENTRAL ILLINOIS

CITY           SKY/WX    TMP DP  RH WIND       PRES   REMARKS
CHAMPAIGN      CLOUDY    45  40  82 N8        29.98R
RANTOUL*       CLOUDY    46  41  85 N12       29.97R
MATTOON        CLOUDY    46  46 100 N13       29.96R
PARIS*         CLOUDY    46  44  95 N9        29.97R
$$

ILZ079-100>102-281100-
SOUTHWEST ILLINOIS

CITY           SKY/WX    TMP DP  RH WIND       PRES   REMARKS
ALTON          CLOUDY    51  49  93 CALM      29.98S FOG
BELLEVILLE     CLOUDY    53  53  99 N9        29.96S
CAHOKIA*       CLOUDY    54  49  83 NE6       29.97R
SPARTA*        CLOUDY    53  50  91 N7        29.97R
$$

ILZ064>066-069>071-074>076-080>082-084>086-088>090-092>094-281100-
SOUTH-CENTRAL ILLINOIS

CITY           SKY/WX    TMP DP  RH WIND       PRES   REMARKS
CARBONDALE     CLOUDY    54  52  93 N8G20     29.95R
CAIRO*         CLOUDY    56  53  89 N6        29.94R
EFFINGHAM*     CLOUDY    51  51 100 NW7       29.98R FOG
MARION         CLOUDY    55  55 100 N8        29.95S
MT. VERNON     CLOUDY    53  50  89 VRB5      29.95R
CENTRALIA*     CLOUDY    54  52  94 N7        29.95S
SALEM*         CLOUDY    54  50  88 N12       29.96R
METROPOLIS*    CLOUDY    56  53  90 NW3       29.94R
$$

ILZ067-068-072-073-078-083-087-091-281100-
SOUTHEAST ILLINOIS

CITY           SKY/WX    TMP DP  RH WIND       PRES   REMARKS
LAWRENCEVILLE  CLOUDY    55  53  93 N12       29.92R
FLORA*         CLOUDY    55  51  89 N13       29.95R
FAIRFIELD*     CLOUDY    55  52  91 NW7       29.93R
HARRISBURG*    CLOUDY    56  53  91 NW7       29.94R
ROBINSON*      CLOUDY    51  50  96 N10       29.94R FOG
CARMI*         CLOUDY    55  54  95 NW12      29.92R
$$

ABBREVIATIONS USED IN REMARKS
   TC - TEMPERATURE IN CELSIUS
  WCI - WIND CHILL INDEX
   HX - HEAT INDEX
  VSB - VISIBILITY
$$




USA.gov is the U.S. government's official web portal to all federal, state and local government web resources and services.